Location: Ar Ranvel
(48.3000°N, 4.8833°W)
Time: 09:20:31
(UTC+00:00)

CARTOSAT-1 - Pass Details

Date: 16 June 2021
Orbit: 616 x 618 km, 97.8° (Epoch: 26 July)

Event Time Altitude Azimuth Distance (km) Brightness Sun altitude
Exits shadow 21:10:55 - 148° (SSE) 2,149 5.7 -6.7°
Reaches altitude 10° 21:11:21 10° 147° (SSE) 1,980 5.5 -6.8°
Maximum altitude 21:15:32 52° 71° (ENE) 771 3.9 -7.3°
Drops below altitude 10° 21:19:45 10° 356° (N) 1,996 7.1 -7.7°
Sets 21:21:59 0° 351° (N) 2,907 8.1 -8.0°
